Regional Weather Roundup
Issued by NWS Little Rock, AR

Home | Current Version | Previous Version | Graphics & Text | Print | Product List | Glossary On
Versions: 1 2 3 4 5 6 7 8 9 10 11 12 13 14 15 16 17 18 19 20 21 22 23 24 25 26 27 28 29 30 31
000
ASUS44 KLZK 251212
RWRLZK

WEATHER ROUNDUP FOR ARKANSAS
NATIONAL WEATHER SERVICE LITTLE ROCK AR
700 AM CDT SUN JUN 25 2017

NOTE: "FAIR" INDICATES FEW OR NO CLOUDS BELOW 12,000 FEET WITH NO
SIGNIFICANT WEATHER AND/OR OBSTRUCTIONS TO VISIBILITY.

ARZ001-003-010-029-251300-
NORTHWEST ARKANSAS

CITY           SKY/WX    TMP DP  RH WIND       PRES   REMARKS
FAYETTEVILLE   MOCLDY    60  58  92 CALM      30.29R
6HR MIN TEMP:  59; 6HR MAX TEMP:  61;

FORT SMITH     PTCLDY    68  60  75 E3        30.25R
6HR MIN TEMP:  67; 6HR MAX TEMP:  73;

HARRISON       CLOUDY    61  54  77 W5        30.29R
6HR MIN TEMP:  59; 6HR MAX TEMP:  62;

BENTONVILLE    MOCLDY    64  55  72 CALM      30.30R
6HR MIN TEMP:  64; 6HR MAX TEMP:  70;

ROGERS         CLOUDY    63  60  90 CALM      30.30R
6HR MIN TEMP:  62; 6HR MAX TEMP:  66;

SILOAM SPGS    CLOUDY    63  55  77 CALM      30.29R
6HR MIN TEMP:  61; 6HR MAX TEMP:  68;

HIGHFILL       CLOUDY    63  59  87 CALM      30.29R
6HR MIN TEMP:  63; 6HR MAX TEMP:  68;

SPRINGDALE     CLEAR     63  57  82 CALM      30.30S
$$

ARZ004-005-016-251300-
NORTH CENTRAL ARKANSAS

CITY           SKY/WX    TMP DP  RH WIND       PRES   REMARKS
BATESVILLE     CLOUDY    64  57  77 W5        30.26R
6HR MIN TEMP:  63; 6HR MAX TEMP:  64;

FLIPPIN        MOSUNNY   63  55  77 CALM      30.25R
6HR MIN TEMP:  61; 6HR MAX TEMP:  63;

MTN HOME       CLOUDY    62  60  93 CALM      30.27R
6HR MIN TEMP:  59; 6HR MAX TEMP:  62;

$$

ARZ040-041-251300-
WEST CENTRAL ARKANSAS

CITY           SKY/WX    TMP DP  RH WIND       PRES   REMARKS
MENA           CLOUDY    66  64  94 CALM      30.26R
MOUNT IDA      CLOUDY    64  61  90 CALM      30.23R
6HR MIN TEMP:  62; 6HR MAX TEMP:  67;

$$

ARZ009-017-025-026-028-251300-
NORTHEAST ARKANSAS

CITY           SKY/WX    TMP DP  RH WIND       PRES   REMARKS
CORNING        FAIR      63  61  94 NW5       30.24S
JONESBORO      SUNNY     68  56  65 CALM      30.22R
6HR MIN TEMP:  65; 6HR MAX TEMP:  71;

WALNUT RIDGE   MOSUNNY   64  55  72 N7        30.24R
6HR MIN TEMP:  63; 6HR MAX TEMP:  66;

BLYTHEVILLE    MOSUNNY   67  65  93 CALM      30.22R
6HR MIN TEMP:  64; 6HR MAX TEMP:  69;

$$

ARZ022-023-033-042-044-251300-
CENTRAL ARKANSAS

CITY           SKY/WX    TMP DP  RH WIND       PRES   REMARKS
LITTLE ROCK    CLOUDY    67  62  84 NW7       30.23R
6HR MIN TEMP:  66; 6HR MAX TEMP:  71;

N LITTLE ROCK    N/A     67  61  80 NW5       30.23R
6HR MIN TEMP:  65; 6HR MAX TEMP:  70;

JACKSONVILLE   SUNNY     65  63  91 CALM      30.23R
6HR MIN TEMP:  64; 6HR MAX TEMP:  68;

CONWAY           N/A     66  64  94 CALM      30.23R
SEARCY         SUNNY     63  62  97 CALM      30.25R
6HR MIN TEMP:  63; 6HR MAX TEMP:  69;

HOT SPRINGS    SUNNY     66  61  84 CALM      30.24R
6HR MIN TEMP:  64; 6HR MAX TEMP:  72; 6HR PCP: TRACE;

RUSSELLVILLE   SUNNY     66  63  90 CALM      30.25R
6HR MIN TEMP:  62; 6HR MAX TEMP:  70;

CLINTON        FAIR      61  61 100 CALM      30.27R
$$

ARZ036-251300-
EAST ARKANSAS

CITY           SKY/WX    TMP DP  RH WIND       PRES   REMARKS
WEST MEMPHIS   MOSUNNY   67  66  97 CALM      30.21R
6HR MIN TEMP:  67; 6HR MAX TEMP:  70; 6HR PCP: TRACE;

$$

ARZ050-053-066-070-073-251300-
SOUTHWEST ARKANSAS

CITY           SKY/WX    TMP DP  RH WIND       PRES   REMARKS
CAMDEN         CLOUDY    68  64  88 NE3       30.21S
TEXARKANA      CLOUDY    67  65  93 E3        30.21R
6HR MIN TEMP:  67; 6HR MAX TEMP:  70;

EL DORADO      CLOUDY    69  66  90 NE3       30.21R
6HR MIN TEMP:  68; 6HR MAX TEMP:  71;

DE QUEEN       CLOUDY    65  65 100 CALM      30.21R
6HR MIN TEMP:  63; 6HR MAX TEMP:  71;

$$

ARZ056-057-069-251300-
SOUTHEAST ARKANSAS

CITY           SKY/WX    TMP DP  RH WIND       PRES   REMARKS
PINE BLUFF     CLOUDY    69  63  81 NW3       30.23R
6HR MIN TEMP:  67; 6HR MAX TEMP:  71;

STUTTGART      CLOUDY    70  55  60 N7        30.23R
6HR MIN TEMP:  68; 6HR MAX TEMP:  70;

MONTICELLO     CLOUDY    69  65  86 CALM      30.21R
6HR MIN TEMP:  67; 6HR MAX TEMP:  71;


$$






USA.gov is the U.S. government's official web portal to all federal, state and local government web resources and services.